QPF
0.00 0.00 0.00 0.00 0.00 0.00 0.00 0.00 0.00 0.00 0.00 0.00 0.00 0.00 0.00 0.00 0.00 0.00 0.00 0.00 0.00 0.00 0.00 0.00 0.00 0.00 0.00 0.00 0.00 0.00 0.00 0.00 0.00 0.00 0.00 0.00 0.00 0.00 0.00 0.00 0.00 0.00 0.00 0.00 0.00
0.00 0.00 0.00 0.00 0.00 0.00 0.00 0.00 0.00 0.00 0.00 0.00 0.00 0.00 0.00 0.00 0.00 0.00 0.00 0.00 0.00 0.00 0.00 0.00 0.00 0.00 0.00 0.00 0.00 0.00 0.00 0.00 0.00 0.00 0.00 0.00 0.00 0.00 0.00 0.00 0.00 0.01 0.01 0.00 0.00
0.00 0.00 0.00 0.00 0.00 0.00 0.00 0.00 0.00 0.00 0.00 0.00 0.00 0.00 0.00 0.00 0.00 0.00 0.00 0.00 0.00 0.00 0.00 0.00 0.00 0.00 0.00 0.00 0.00 0.00 0.00 0.00 0.00 0.00 0.00 0.00 0.00 0.00 0.00 0.00 0.01 0.04 0.03 0.02 0.00
0.00 0.00 0.00 0.00 0.00 0.00 0.00 0.00 0.00 0.00 0.00 0.00 0.00 0.00 0.00 0.00 0.00 0.00 0.00 0.00 0.00 0.00 0.00 0.00 0.00 0.00 0.00 0.00 0.00 0.00 0.00 0.00 0.00 0.00 0.00 0.00 0.00 0.00 0.00 0.00 0.01 0.01 0.02 0.02 0.03
0.00 0.00 0.00 0.00 0.00 0.00 0.00 0.00 0.00 0.00 0.00 0.00 0.00 0.00 0.00 0.00 0.00 0.00 0.00 0.00 0.00 0.00 0.00 0.00 0.00 0.00 0.00 0.00 0.00 0.00 0.00 0.00 0.00 0.00 0.00 0.00 0.00 0.00 0.01 0.01 0.04 0.01 0.02 0.03 0.03
0.00 0.00 0.00 0.00 0.00 0.00 0.00 0.00 0.00 0.00 0.00 0.00 0.00 0.00 0.00 0.00 0.00 0.00 0.00 0.00 0.00 0.00 0.00 0.00 0.00 0.00 0.00 0.00 0.00 0.00 0.00 0.00 0.00 0.00 0.00 0.00 0.00 0.00 0.01 0.03 0.02 0.01 0.04 0.02 0.01
0.00 0.00 0.00 0.00 0.00 0.00 0.00 0.00 0.00 0.00 0.00 0.00 0.00 0.00 0.00 0.00 0.00 0.00 0.00 0.00 0.00 0.00 0.00 0.00 0.00 0.00 0.00 0.00 0.00 0.00 0.00 0.00 0.00 0.00 0.00 0.00 0.00 0.00 0.00 0.03 0.05 0.05 0.12 0.04 0.01
0.00 0.00 0.00 0.00 0.00 0.00 0.00 0.00 0.00 0.00 0.00 0.00 0.00 0.00 0.00 0.00 0.00 0.00 0.00 0.00 0.00 0.00 0.00 0.00 0.00 0.00 0.00 0.00 0.00 0.00 0.00 0.00 0.00 0.00 0.00 0.00 0.00 0.00 0.00 0.01 0.03 0.03 0.03 0.01 0.02
0.00 0.00 0.00 0.00 0.00 0.00 0.00 0.00 0.00 0.00 0.00 0.00 0.00 0.00 0.00 0.00 0.00 0.00 0.00 0.00 0.00 0.00 0.00 0.00 0.00 0.00 0.00 0.00 0.00 0.00 0.00 0.00 0.00 0.00 0.00 0.00 0.00 0.00 0.00 0.00 0.00 0.02 0.04 0.02 0.01
0.00 0.00 0.00 0.00 0.00 0.00 0.00 0.00 0.00 0.00 0.00 0.00 0.00 0.00 0.00 0.00 0.00 0.00 0.00 0.00 0.00 0.00 0.00 0.00 0.00 0.00 0.00 0.00 0.00 0.00 0.00 0.00 0.00 0.00 0.00 0.00 0.00 0.00 0.00 0.00 0.00 0.01 0.01 0.01 0.00
0.00 0.00 0.00 0.00 0.00 0.00 0.00 0.00 0.00 0.00 0.00 0.00 0.00 0.00 0.00 0.00 0.00 0.00 0.00 0.00 0.00 0.00 0.00 0.00 0.00 0.00 0.00 0.00 0.00 0.00 0.00 0.00 0.00 0.00 0.00 0.00 0.00 0.00 0.00 0.00 0.00 0.00 0.00 0.00 0.00
0.00 0.00 0.00 0.00 0.00 0.00 0.00 0.00 0.00 0.00 0.00 0.00 0.00 0.00 0.00 0.00 0.00 0.00 0.00 0.00 0.00 0.00 0.00 0.00 0.00 0.00 0.00 0.00 0.00 0.00 0.00 0.00 0.00 0.00 0.00 0.00 0.00 0.00 0.00 0.00 0.00 0.00 0.00 0.00 0.00
0.00 0.00 0.00 0.00 0.00 0.00 0.00 0.00 0.00 0.00 0.00 0.00 0.00 0.00 0.00 0.00 0.00 0.00 0.00 0.00 0.00 0.00 0.00 0.00 0.00 0.00 0.00 0.00 0.00 0.00 0.00 0.00 0.00 0.00 0.00 0.00 0.00 0.00 0.00 0.00 0.00 0.00 0.00 0.00 0.00
0.00 0.00 0.00 0.00 0.00 0.00 0.00 0.00 0.00 0.00 0.00 0.00 0.00 0.00 0.00 0.00 0.00 0.00 0.00 0.00 0.00 0.00 0.00 0.00 0.00 0.00 0.00 0.00 0.00 0.00 0.00 0.00 0.00 0.00 0.00 0.00 0.01 0.00 0.00 0.00 0.00 0.00 0.01 0.01 0.01
0.00 0.00 0.00 0.00 0.00 0.00 0.00 0.00 0.00 0.00 0.00 0.00 0.00 0.00 0.00 0.00 0.00 0.00 0.00 0.00 0.00 0.00 0.00 0.00 0.00 0.00 0.00 0.00 0.00 0.00 0.00 0.00 0.00 0.00 0.00 0.00 0.00 0.00 0.00 0.01 0.02 0.02 0.01 0.01 0.01
0.00 0.00 0.00 0.00 0.00 0.00 0.00 0.00 0.00 0.00 0.00 0.00 0.00 0.00 0.00 0.00 0.00 0.00 0.00 0.00 0.00 0.00 0.00 0.00 0.00 0.00 0.00 0.00 0.00 0.00 0.00 0.00 0.00 0.00 0.00 0.00 0.01 0.03 0.04 0.02 0.13 0.05 0.01 0.02 0.01
0.00 0.00 0.00 0.00 0.00 0.00 0.00 0.00 0.00 0.00 0.00 0.00 0.00 0.00 0.00 0.00 0.00 0.00 0.00 0.00 0.00 0.00 0.00 0.00 0.00 0.00 0.00 0.00 0.00 0.00 0.00 0.00 0.00 0.00 0.00 0.00 0.01 0.08 0.03 0.02 0.05 0.04 0.02 0.02 0.00
0.00 0.00 0.00 0.00 0.00 0.00 0.00 0.00 0.00 0.00 0.00 0.00 0.00 0.00 0.00 0.00 0.00 0.00 0.00 0.00 0.00 0.00 0.00 0.00 0.00 0.00 0.00 0.00 0.00 0.00 0.00 0.00 0.00 0.00 0.00 0.00 0.02 0.03 0.01 0.03 0.02 0.01 0.01 0.00 0.00
0.00 0.00 0.00 0.00 0.00 0.00 0.00 0.00 0.00 0.00 0.00 0.00 0.00 0.00 0.00 0.00 0.00 0.00 0.00 0.00 0.00 0.00 0.00 0.00 0.00 0.00 0.00 0.00 0.00 0.00 0.00 0.00 0.00 0.00 0.00 0.00 0.03 0.02 0.00 0.01 0.01 0.00 0.00 0.00 0.00
0.00 0.00 0.00 0.00 0.00 0.00 0.00 0.00 0.00 0.00 0.00 0.00 0.00 0.00 0.00 0.00 0.00 0.00 0.00 0.00 0.00 0.00 0.00 0.00 0.00 0.00 0.00 0.00 0.00 0.00 0.00 0.00 0.00 0.00 0.00 0.00 0.02 0.02 0.00 0.01 0.01 0.01 0.00 0.00 0.00
0.00 0.00 0.00 0.00 0.00 0.00 0.00 0.00 0.00 0.00 0.00 0.00 0.00 0.00 0.00 0.00 0.00 0.00 0.00 0.00 0.00 0.00 0.00 0.00 0.00 0.00 0.00 0.00 0.00 0.00 0.00 0.00 0.00 0.00 0.00 0.01 0.04 0.00 0.01 0.03 0.04 0.01 0.00 0.00 0.00
0.00 0.00 0.00 0.00 0.00 0.00 0.00 0.00 0.00 0.00 0.00 0.00 0.00 0.00 0.00 0.00 0.00 0.00 0.00 0.00 0.00 0.00 0.00 0.00 0.00 0.00 0.00 0.00 0.00 0.00 0.00 0.00 0.00 0.02 0.02 0.02 0.05 0.00 0.00 0.02 0.06 0.04 0.00 0.00 0.00
0.00 0.00 0.00 0.00 0.00 0.00 0.00 0.00 0.00 0.00 0.00 0.00 0.00 0.00 0.00 0.00 0.00 0.00 0.00 0.00 0.00 0.00 0.00 0.00 0.00 0.00 0.00 0.00 0.00 0.00 0.00 0.00 0.00 0.00 0.00 0.00 0.03 0.00 0.01 0.03 0.05 0.01 0.00 0.00 0.00
0.00 0.00 0.00 0.00 0.00 0.00 0.00 0.00 0.00 0.00 0.00 0.00 0.00 0.00 0.00 0.00 0.00 0.00 0.00 0.00 0.00 0.00 0.00 0.00 0.00 0.00 0.00 0.00 0.00 0.00 0.00 0.00 0.00 0.00 0.00 0.00 0.00 0.00 0.01 0.02 0.01 0.00 0.00 0.00 0.00
0.00 0.00 0.00 0.00 0.00 0.00 0.00 0.00 0.00 0.00 0.00 0.00 0.00 0.00 0.00 0.00 0.00 0.00 0.00 0.00 0.00 0.00 0.00 0.00 0.00 0.00 0.00 0.00 0.00 0.00 0.00 0.00 0.00 0.00 0.00 0.00 0.00 0.00 0.00 0.00 0.00 0.00 0.00 0.00 0.00
0.00 0.00 0.00 0.00 0.00 0.00 0.00 0.00 0.00 0.00 0.00 0.00 0.00 0.00 0.00 0.00 0.00 0.00 0.00 0.00 0.00 0.00 0.00 0.00 0.00 0.00 0.00 0.00 0.00 0.00 0.00 0.00 0.00 0.00 0.00 0.00 0.00 0.00 0.00 0.00 0.00 0.00 0.00 0.00 0.00
0.00 0.00 0.00 0.00 0.00 0.00 0.00 0.00 0.00 0.00 0.00 0.00 0.00 0.00 0.00 0.00 0.00 0.00 0.00 0.00 0.00 0.00 0.00 0.00 0.00 0.00 0.00 0.00 0.00 0.00 0.00 0.00 0.00 0.00 0.00 0.00 0.00 0.00 0.00 0.00 0.00 0.00 0.00 0.00 0.00
MSLP
1017.57 1017.46 1017.22 1017.13 1016.80 1016.62 1016.62 1016.43 1016.24 1016.05 1015.89 1015.70 1015.41 1014.99 1014.58 1014.16 1013.37 1012.87 1010.55 1010.39 1010.19 1010.43 1010.82 1009.82 1009.43 1008.97 1008.83 1008.05 1008.05 1007.50 1005.44 1005.19 1006.07 1006.20 1007.73 1008.44 1008.87 1010.47 1011.25 1012.27 1012.94 1013.24 1013.97 1015.67 1016.71
1017.37 1017.18 1016.94 1016.99 1016.62 1016.59 1016.44 1016.16 1016.01 1015.90 1015.76 1015.60 1015.14 1014.72 1014.41 1014.05 1012.37 1010.66 1010.37 1010.40 1010.60 1010.68 1009.82 1008.97 1008.30 1008.32 1007.53 1007.65 1007.58 1006.76 1005.85 1007.26 1008.44 1007.97 1008.69 1009.53 1009.91 1010.88 1011.74 1013.37 1015.40 1016.27 1017.05 1017.16 1017.33
1017.07 1016.93 1016.86 1016.62 1016.47 1016.30 1016.19 1015.95 1015.86 1015.73 1015.64 1015.34 1014.85 1014.53 1014.24 1013.68 1011.48 1009.67 1010.37 1010.55 1010.70 1010.65 1009.57 1008.99 1008.44 1007.78 1006.99 1007.20 1007.55 1008.39 1008.46 1008.67 1009.36 1009.52 1010.05 1011.05 1011.82 1012.15 1013.15 1015.30 1016.64 1017.53 1018.29 1018.52 1018.66
1016.77 1016.64 1016.57 1016.39 1016.12 1015.99 1015.95 1015.71 1015.67 1015.49 1015.44 1015.06 1014.65 1014.35 1013.86 1012.65 1009.96 1009.69 1010.37 1010.49 1010.69 1010.15 1009.40 1008.55 1007.76 1006.98 1006.72 1007.05 1008.04 1008.87 1009.97 1009.68 1010.42 1011.06 1011.30 1012.27 1013.68 1015.13 1015.74 1017.78 1018.58 1019.19 1019.46 1019.84 1020.12
1016.67 1016.47 1016.43 1016.10 1015.88 1015.72 1015.67 1015.42 1015.53 1015.29 1015.19 1014.89 1014.44 1014.10 1013.15 1010.95 1009.26 1009.80 1010.45 1010.62 1010.34 1009.85 1008.82 1007.96 1007.14 1006.93 1006.85 1007.79 1008.59 1009.56 1010.57 1011.13 1011.58 1012.17 1013.01 1014.00 1015.12 1016.65 1018.20 1019.08 1019.64 1020.14 1020.32 1020.68 1021.22
1016.61 1016.48 1016.24 1015.77 1015.68 1015.37 1015.33 1015.32 1015.14 1015.13 1014.97 1014.68 1014.31 1013.82 1012.26 1009.65 1009.39 1009.66 1009.85 1010.03 1009.48 1009.20 1008.40 1007.99 1007.58 1007.58 1007.66 1008.15 1008.46 1010.20 1010.93 1011.59 1012.06 1012.57 1013.49 1014.49 1016.32 1017.40 1019.33 1019.76 1019.96 1020.50 1021.12 1021.43 1021.69
1016.45 1016.29 1015.73 1015.55 1015.34 1015.16 1015.12 1015.07 1014.75 1014.90 1014.82 1014.44 1014.08 1013.22 1011.28 1009.30 1009.19 1009.47 1009.69 1009.19 1009.15 1008.96 1008.27 1008.28 1008.15 1007.63 1008.08 1009.10 1009.82 1010.31 1010.45 1011.20 1012.13 1012.67 1013.40 1013.88 1016.52 1018.76 1019.89 1020.03 1020.37 1021.09 1021.53 1021.92 1022.26
1016.13 1015.81 1015.44 1015.19 1015.14 1014.98 1014.72 1014.67 1014.56 1014.73 1014.60 1014.17 1013.94 1012.62 1009.69 1008.96 1009.18 1009.19 1009.01 1008.92 1009.16 1009.00 1008.78 1008.58 1008.45 1007.84 1007.81 1009.02 1009.45 1009.17 1009.54 1009.67 1012.00 1012.54 1013.16 1013.71 1017.10 1018.91 1019.38 1019.87 1020.62 1021.34 1021.77 1022.29 1022.94
1015.78 1015.58 1015.17 1015.07 1014.93 1014.62 1014.46 1014.58 1014.54 1014.60 1014.43 1013.94 1013.27 1011.59 1008.63 1009.42 1008.82 1008.48 1008.58 1008.31 1008.63 1008.76 1008.68 1008.78 1008.17 1007.65 1008.57 1008.21 1008.37 1008.56 1008.55 1010.01 1011.66 1012.64 1013.08 1013.85 1017.30 1019.26 1019.62 1019.88 1020.40 1021.14 1021.97 1022.72 1023.40
1015.64 1015.22 1015.01 1015.03 1014.63 1014.44 1014.39 1014.53 1014.45 1014.56 1013.96 1013.02 1012.16 1011.01 1008.37 1008.11 1008.24 1008.48 1008.54 1008.52 1008.03 1008.01 1007.94 1007.78 1007.20 1006.85 1006.78 1006.45 1006.09 1007.58 1009.25 1010.59 1011.52 1013.37 1013.66 1015.44 1017.61 1018.86 1019.57 1019.52 1020.18 1020.94 1022.19 1023.13 1023.76
1015.49 1015.22 1014.83 1014.71 1014.51 1014.31 1014.15 1013.90 1014.01 1012.90 1011.61 1010.50 1010.01 1009.16 1008.11 1007.98 1008.13 1007.89 1008.00 1007.91 1007.69 1007.50 1006.70 1006.86 1005.76 1005.77 1006.61 1006.98 1007.49 1008.33 1009.46 1011.12 1012.79 1013.92 1014.50 1015.60 1017.28 1018.47 1019.10 1019.46 1020.53 1021.42 1022.22 1022.96 1023.59
1015.49 1014.87 1014.68 1014.40 1014.20 1014.19 1013.99 1011.46 1011.52 1011.18 1009.92 1009.66 1009.49 1008.99 1008.48 1008.29 1007.39 1007.46 1007.83 1007.31 1007.04 1006.49 1006.94 1006.49 1006.96 1007.88 1007.93 1008.01 1008.20 1008.70 1009.69 1011.26 1013.07 1014.01 1014.52 1015.78 1017.20 1018.75 1019.14 1019.58 1020.77 1021.57 1021.92 1022.45 1022.67
1015.27 1014.77 1014.32 1014.19 1014.09 1014.08 1011.88 1011.43 1011.00 1010.75 1009.37 1008.95 1008.66 1008.21 1007.87 1008.05 1007.32 1007.17 1007.25 1006.87 1006.40 1006.23 1006.23 1006.21 1008.14 1008.67 1008.39 1008.39 1008.39 1009.02 1009.52 1011.09 1011.90 1013.80 1014.53 1015.70 1016.46 1018.27 1019.53 1020.31 1020.89 1021.39 1021.68 1021.73 1022.15
1014.96 1014.61 1014.16 1014.00 1014.22 1011.83 1010.97 1011.06 1010.60 1010.55 1008.50 1008.60 1008.00 1007.97 1007.83 1007.53 1007.40 1007.64 1007.42 1007.09 1006.45 1006.50 1006.88 1007.71 1008.62 1008.59 1008.56 1008.80 1009.12 1008.63 1010.35 1011.06 1012.13 1012.54 1011.98 1014.15 1013.78 1015.43 1018.01 1019.88 1020.79 1021.05 1021.29 1021.50 1022.04
1014.52 1014.15 1013.84 1013.89 1012.04 1010.79 1011.09 1010.71 1010.49 1010.10 1008.12 1008.58 1007.77 1007.80 1007.56 1007.09 1007.42 1007.43 1007.59 1006.91 1006.76 1007.18 1007.53 1008.29 1008.56 1008.63 1008.92 1009.80 1009.71 1010.25 1010.77 1010.96 1011.59 1011.65 1012.55 1013.08 1013.94 1014.24 1016.16 1018.69 1020.34 1021.02 1021.69 1022.12 1022.52
1014.02 1013.60 1013.43 1012.95 1011.66 1010.98 1010.77 1010.70 1010.43 1008.93 1008.29 1007.99 1007.59 1007.29 1007.09 1007.27 1007.54 1007.63 1007.57 1007.67 1007.99 1007.68 1007.91 1008.81 1009.43 1009.70 1009.87 1010.42 1010.50 1010.94 1011.11 1011.18 1011.23 1011.08 1010.81 1011.97 1013.55 1014.50 1016.44 1017.87 1019.15 1021.02 1021.91 1022.37 1022.94
1013.65 1013.29 1013.07 1011.82 1010.68 1010.79 1010.51 1009.65 1008.67 1007.71 1008.84 1008.14 1007.60 1007.45 1007.21 1007.73 1008.04 1007.96 1008.18 1008.34 1007.98 1008.29 1008.59 1009.30 1009.81 1010.29 1010.58 1009.98 1010.81 1010.93 1010.34 1009.85 1009.71 1009.66 1009.90 1012.35 1013.95 1017.07 1018.59 1019.40 1019.88 1020.96 1022.28 1023.11 1023.72
1013.48 1013.28 1012.83 1011.53 1011.17 1010.83 1009.84 1008.87 1008.24 1008.72 1008.45 1008.67 1008.16 1007.83 1007.68 1008.49 1008.86 1009.08 1009.02 1008.96 1009.67 1009.36 1008.98 1009.19 1009.96 1010.73 1011.32 1011.39 1011.29 1011.02 1011.47 1010.74 1010.65 1010.40 1011.00 1012.45 1014.50 1019.01 1020.23 1020.70 1020.99 1021.93 1023.03 1023.77 1024.47
1013.32 1012.33 1011.22 1011.33 1011.27 1010.70 1009.26 1008.22 1008.66 1009.07 1009.29 1008.76 1008.27 1007.96 1008.38 1008.90 1008.99 1009.42 1010.14 1010.41 1011.04 1010.87 1010.20 1010.06 1010.97 1012.07 1012.31 1012.16 1012.13 1011.43 1011.44 1012.57 1012.14 1011.38 1011.86 1012.73 1017.08 1019.56 1020.93 1021.59 1022.05 1022.73 1023.28 1024.14 1024.42
1012.53 1011.45 1011.24 1011.38 1011.32 1010.23 1008.93 1009.30 1009.57 1010.03 1009.84 1009.27 1008.66 1008.93 1008.76 1009.34 1009.40 1009.76 1010.59 1011.97 1011.90 1011.96 1011.62 1011.43 1011.45 1012.60 1012.92 1012.80 1012.68 1012.98 1013.39 1012.65 1012.19 1012.28 1012.53 1013.08 1016.08 1019.32 1020.63 1021.63 1022.44 1022.74 1023.63 1023.95 1023.98
1012.46 1010.89 1011.43 1011.29 1011.00 1009.61 1008.91 1009.88 1010.17 1010.42 1010.17 1009.70 1009.67 1009.84 1010.17 1010.28 1010.58 1010.96 1011.86 1012.72 1012.96 1012.67 1012.29 1012.26 1012.29 1013.01 1013.39 1013.81 1013.89 1013.52 1013.42 1013.94 1014.38 1014.34 1014.00 1014.51 1017.97 1020.09 1020.72 1021.31 1021.96 1022.45 1023.04 1023.47 1024.20
1012.42 1010.83 1011.43 1011.24 1010.16 1010.25 1009.73 1010.73 1011.54 1010.86 1010.44 1010.56 1010.68 1010.92 1011.12 1011.46 1011.58 1011.89 1012.58 1013.18 1013.87 1013.76 1013.30 1013.95 1013.65 1013.29 1014.16 1015.47 1015.60 1015.52 1015.44 1015.31 1014.63 1015.16 1015.89 1016.33 1019.10 1020.18 1020.86 1021.59 1022.06 1022.67 1023.38 1024.01 1024.40
1012.63 1011.77 1011.40 1011.11 1010.19 1010.46 1011.29 1011.34 1011.53 1011.15 1011.44 1011.20 1011.52 1011.85 1012.19 1012.31 1012.56 1012.87 1013.39 1014.35 1014.38 1014.51 1014.78 1014.83 1014.74 1014.25 1015.03 1016.03 1015.83 1016.18 1016.45 1016.44 1016.61 1016.43 1016.71 1016.82 1018.74 1020.47 1021.31 1021.70 1022.39 1022.76 1023.89 1024.36 1024.80
1013.58 1012.03 1011.81 1011.83 1012.40 1011.50 1011.38 1011.66 1011.87 1012.39 1012.30 1012.33 1012.41 1012.45 1012.49 1012.71 1013.15 1013.46 1013.88 1014.70 1015.11 1015.56 1016.17 1015.71 1015.72 1015.53 1015.33 1016.22 1016.89 1016.90 1017.24 1017.11 1016.94 1016.70 1017.25 1018.34 1018.95 1019.95 1021.23 1021.85 1022.68 1023.63 1024.09 1024.98 1025.59
1014.73 1014.71 1014.86 1012.70 1012.99 1012.72 1012.50 1012.40 1012.13 1012.40 1012.77 1012.85 1012.86 1012.98 1013.08 1013.18 1013.43 1013.69 1014.14 1014.71 1015.29 1016.19 1016.07 1015.92 1016.17 1016.55 1017.02 1017.43 1017.60 1017.78 1017.89 1018.02 1017.97 1018.34 1018.39 1019.04 1019.46 1020.57 1021.74 1022.34 1023.14 1023.95 1025.00 1025.38 1025.82
1015.81 1015.56 1015.19 1014.63 1014.46 1013.48 1013.35 1013.22 1012.94 1013.28 1013.26 1013.36 1013.42 1013.87 1013.93 1014.28 1014.56 1014.21 1014.43 1014.68 1014.95 1015.69 1016.02 1016.68 1016.81 1017.08 1017.54 1018.05 1018.13 1018.17 1018.49 1018.51 1018.78 1019.13 1019.00 1019.47 1020.53 1021.56 1022.52 1023.11 1023.80 1024.77 1025.20 1025.79 1025.99
1017.93 1017.59 1016.38 1015.57 1014.69 1013.96 1014.39 1014.25 1013.96 1013.91 1014.63 1014.40 1014.56 1014.56 1015.12 1015.83 1015.69 1015.62 1015.66 1015.84 1015.77 1015.58 1016.20 1016.59 1017.00 1017.10 1017.21 1018.27 1018.40 1018.13 1018.83 1018.87 1019.06 1019.37 1020.23 1020.11 1021.14 1022.07 1022.74 1023.60 1024.37 1025.11 1025.72 1026.09 1026.58
Thickness
5744 5746 5747 5748 5750 5752 5751 5751 5751 5753 5753 5754 5757 5761 5766 5772 5780 5787 5797 5804 5808 5808 5805 5810 5809 5810 5810 5807 5810 5815 5805 5796 5792 5796 5784 5798 5789 5786 5787 5767 5766 5767 5760 5748 5743
5745 5746 5748 5747 5750 5750 5750 5751 5751 5751 5752 5753 5758 5762 5766 5772 5787 5795 5804 5805 5805 5805 5808 5805 5803 5807 5804 5803 5806 5805 5802 5783 5788 5798 5787 5788 5788 5781 5775 5760 5737 5733 5735 5738 5737
5746 5747 5747 5749 5750 5750 5750 5751 5751 5751 5752 5755 5760 5764 5768 5774 5785 5796 5804 5804 5804 5805 5811 5811 5810 5809 5802 5808 5801 5788 5774 5788 5785 5792 5790 5776 5771 5780 5766 5738 5735 5725 5721 5723 5722
5747 5748 5748 5749 5751 5751 5751 5752 5751 5753 5753 5757 5762 5766 5771 5782 5769 5804 5804 5805 5804 5808 5809 5807 5808 5802 5798 5791 5799 5774 5777 5786 5780 5781 5780 5766 5761 5741 5745 5723 5724 5718 5717 5712 5706
5746 5747 5747 5750 5751 5752 5752 5754 5753 5755 5756 5760 5765 5769 5780 5784 5789 5806 5805 5805 5806 5809 5806 5805 5804 5802 5790 5791 5790 5774 5771 5774 5776 5772 5764 5758 5743 5731 5718 5719 5716 5711 5708 5703 5696
5745 5746 5748 5752 5752 5755 5754 5755 5757 5757 5759 5764 5768 5773 5783 5778 5808 5808 5808 5807 5810 5808 5808 5809 5803 5806 5792 5788 5788 5777 5772 5769 5770 5766 5761 5747 5732 5728 5712 5715 5710 5704 5696 5694 5691
5745 5747 5752 5753 5754 5757 5756 5758 5762 5761 5763 5767 5771 5778 5781 5789 5811 5810 5810 5811 5814 5811 5804 5810 5810 5803 5796 5774 5785 5776 5764 5767 5763 5763 5756 5762 5725 5703 5707 5709 5702 5696 5692 5686 5684
5747 5751 5754 5755 5757 5758 5760 5761 5764 5764 5766 5770 5773 5781 5784 5813 5811 5811 5815 5811 5815 5815 5810 5813 5812 5805 5798 5792 5780 5775 5776 5762 5756 5760 5759 5759 5698 5707 5713 5707 5695 5690 5685 5680 5670
5749 5752 5756 5757 5757 5761 5763 5762 5764 5764 5767 5772 5779 5783 5786 5812 5804 5817 5818 5807 5811 5811 5812 5810 5808 5798 5788 5777 5768 5775 5761 5755 5747 5758 5754 5750 5699 5697 5705 5701 5694 5688 5677 5668 5659
5749 5754 5757 5756 5760 5763 5764 5764 5764 5765 5771 5778 5784 5776 5802 5794 5809 5812 5819 5814 5806 5805 5801 5801 5800 5791 5794 5792 5771 5761 5750 5749 5743 5737 5743 5717 5694 5699 5698 5700 5691 5684 5668 5656 5647
5749 5753 5757 5759 5762 5764 5765 5771 5770 5771 5782 5784 5786 5787 5799 5811 5817 5810 5817 5810 5808 5800 5785 5798 5798 5788 5785 5788 5784 5773 5757 5736 5730 5733 5725 5714 5699 5694 5695 5693 5678 5667 5657 5647 5638
5748 5755 5757 5761 5764 5766 5769 5780 5778 5783 5774 5792 5790 5792 5802 5806 5794 5805 5817 5796 5794 5783 5791 5791 5769 5778 5784 5782 5774 5767 5750 5733 5725 5726 5722 5707 5690 5680 5684 5682 5667 5655 5650 5643 5641
5750 5755 5761 5763 5765 5767 5783 5780 5790 5792 5777 5784 5794 5793 5799 5802 5791 5796 5809 5804 5795 5787 5791 5784 5769 5777 5774 5769 5763 5758 5751 5733 5731 5716 5716 5698 5687 5668 5667 5663 5658 5653 5649 5647 5637
5752 5756 5761 5764 5764 5783 5781 5789 5794 5795 5772 5767 5782 5790 5799 5802 5783 5806 5811 5801 5795 5782 5784 5772 5776 5769 5766 5756 5760 5754 5750 5740 5720 5716 5721 5711 5699 5691 5669 5652 5645 5647 5645 5641 5633
5754 5759 5763 5766 5780 5781 5782 5791 5795 5789 5728 5772 5780 5809 5802 5791 5790 5790 5812 5803 5782 5777 5779 5759 5763 5761 5753 5746 5757 5738 5746 5737 5726 5720 5706 5698 5688 5698 5688 5653 5638 5636 5632 5628 5622
5757 5762 5765 5769 5779 5784 5788 5791 5787 5759 5720 5762 5782 5779 5781 5787 5785 5792 5793 5802 5794 5779 5779 5765 5773 5762 5754 5751 5751 5745 5733 5729 5725 5721 5703 5706 5694 5685 5670 5665 5654 5633 5624 5621 5613
5759 5764 5769 5775 5775 5785 5789 5786 5756 5743 5766 5757 5766 5778 5778 5767 5770 5777 5770 5765 5763 5747 5745 5754 5750 5757 5756 5747 5742 5737 5730 5716 5713 5716 5712 5703 5687 5652 5649 5648 5644 5632 5619 5610 5603
5760 5763 5768 5776 5780 5784 5787 5768 5734 5751 5756 5769 5771 5774 5763 5764 5760 5761 5759 5754 5760 5760 5752 5740 5726 5740 5745 5733 5724 5724 5716 5704 5670 5688 5698 5701 5677 5630 5636 5637 5636 5625 5609 5599 5585
5761 5769 5773 5775 5778 5784 5774 5748 5744 5750 5759 5760 5769 5761 5756 5761 5762 5757 5746 5743 5742 5749 5739 5734 5719 5734 5732 5734 5730 5719 5705 5706 5685 5703 5687 5701 5647 5635 5626 5619 5617 5609 5604 5587 5583
5768 5768 5766 5774 5777 5779 5765 5735 5748 5757 5759 5763 5748 5757 5746 5749 5751 5751 5742 5737 5735 5743 5749 5733 5713 5721 5721 5726 5721 5707 5705 5684 5696 5662 5659 5691 5661 5623 5620 5612 5605 5602 5586 5584 5584
5763 5758 5767 5774 5777 5770 5749 5743 5751 5759 5762 5754 5747 5742 5742 5739 5742 5735 5727 5729 5732 5733 5743 5735 5725 5704 5712 5696 5686 5692 5686 5682 5676 5672 5661 5663 5629 5628 5621 5618 5606 5601 5593 5586 5573
5757 5744 5767 5772 5754 5752 5750 5747 5736 5749 5761 5752 5750 5741 5734 5732 5728 5727 5718 5721 5725 5726 5716 5716 5711 5695 5689 5688 5688 5681 5671 5672 5666 5653 5655 5654 5615 5632 5623 5614 5607 5596 5585 5574 5565
5745 5747 5767 5765 5738 5740 5739 5738 5742 5744 5739 5741 5733 5735 5732 5722 5713 5719 5718 5720 5721 5715 5705 5708 5691 5682 5667 5669 5682 5665 5667 5667 5662 5661 5643 5644 5621 5627 5616 5608 5598 5590 5574 5565 5557
5740 5733 5745 5747 5735 5738 5735 5731 5727 5735 5731 5733 5728 5731 5726 5719 5721 5708 5708 5710 5711 5705 5691 5701 5683 5674 5668 5660 5662 5654 5656 5663 5660 5650 5642 5628 5626 5621 5608 5599 5589 5576 5569 5554 5543
5728 5712 5711 5724 5723 5726 5728 5728 5724 5719 5728 5729 5720 5719 5715 5706 5708 5705 5709 5705 5705 5691 5696 5692 5667 5669 5664 5661 5660 5654 5651 5650 5644 5641 5629 5627 5621 5612 5601 5593 5582 5571 5553 5546 5537
5716 5714 5715 5713 5711 5719 5714 5714 5715 5713 5717 5710 5709 5710 5713 5700 5699 5698 5703 5701 5696 5696 5687 5681 5660 5664 5651 5656 5655 5648 5648 5648 5641 5635 5635 5627 5606 5608 5594 5586 5572 5557 5550 5539 5533
5697 5699 5704 5690 5708 5712 5703 5704 5707 5713 5706 5711 5706 5705 5697 5692 5700 5700 5699 5694 5693 5688 5677 5672 5662 5657 5650 5651 5649 5645 5642 5642 5640 5638 5622 5613 5608 5601 5588 5575 5562 5552 5542 5535 5527